Date String (YYYY-MM-DD hh:mm:ss) UTC,Instrument flags,absolute air pressure of the measurement (hPa),sample flow rate (lpm),inlet stack bypass flow (lpm),air temperature of the measurement (°C),ambient temperature measured by the external sensor (°C),aerosol sample conditioner tube jacket temperature (°C),OPC LED temperature (°C),internal box temperature (°C),relative humidity of the measurement (%),span deviation,mass concentration of particles derived from Lorenz-Mie calculation of OPC scattering (μg/m³),mass concentration of particles derived from Lorenz-Mie calculation of OPC scattering (μg/m³),mass concentration of particles derived from Lorenz-Mie calculation of OPC scattering (μg/m³)
DateTimeUTC,F1_M11,P_M11,Q1_M11,Q2_M11,T1_M11,T2_M11,T3_M11,T4_M11,T5_M11,U1_M11,ZSPAN_M11,X0_M11,X2_M11,X1_M11
2023-11-29 03:00:00,SystemResetWarning,0832.5,5.00,000.00,023.5,022.4,000.0,032.1,024.7,10.2,0000.0,0010.09,0005.77,0005.27
2023-11-29 03:01:00,SystemResetWarning,0832.5,5.00,000.00,023.5,022.4,000.0,032.1,024.6,10.1,0000.0,0010.61,0005.80,0005.27
2023-11-29 03:02:00,SystemResetWarning,0832.5,5.01,000.00,023.5,022.4,000.0,032.1,024.7,10.2,0000.0,0010.63,0005.81,0005.28
2023-11-29 03:03:00,SystemResetWarning,0832.5,5.00,000.00,023.5,022.4,000.0,032.1,024.6,10.2,0000.0,0010.84,0005.74,0005.24
2023-11-29 03:04:00,SystemResetWarning,0832.5,5.00,000.00,023.5,022.4,000.0,032.1,024.6,10.2,0000.0,0011.29,0005.67,0005.19
2023-11-29 03:05:00,SystemResetWarning,0832.5,5.00,000.00,023.5,022.3,000.0,032.0,024.6,10.2,0000.0,0011.30,0005.65,0005.15
2023-11-29 03:06:00,SystemResetWarning,0832.6,5.00,000.00,023.4,022.3,000.0,032.0,024.6,10.2,0000.0,0010.94,0005.57,0005.10
2023-11-29 03:07:00,SystemResetWarning,0832.5,5.00,000.00,023.4,022.3,000.0,032.0,024.6,10.2,0000.0,0011.04,0005.51,0005.05
2023-11-29 03:08:00,SystemResetWarning,0832.5,5.00,000.00,023.4,022.3,000.0,032.0,024.6,10.2,0000.0,0010.99,0005.47,0005.01
2023-11-29 03:09:00,SystemResetWarning,0832.6,5.00,000.00,023.4,022.3,000.0,032.0,024.6,10.2,0000.0,0011.09,0005.46,0004.99
2023-11-29 03:10:00,SystemResetWarning,0832.5,5.00,000.00,023.4,022.3,000.0,031.9,024.6,10.2,0000.0,0011.06,0005.44,0004.96
2023-11-29 03:11:00,SystemResetWarning,0832.5,4.99,000.00,023.4,022.3,000.0,031.9,024.6,10.2,0000.0,0010.96,0005.40,0004.93
2023-11-29 03:12:00,SystemResetWarning,0832.5,5.00,000.00,023.4,022.3,000.0,031.9,024.5,10.2,0000.0,0010.30,0005.31,0004.88
2023-11-29 03:13:00,SystemResetWarning,0832.5,4.99,000.00,023.3,022.3,000.0,031.9,024.5,10.2,0000.0,0010.06,0005.24,0004.82
2023-11-29 03:14:00,SystemResetWarning,0832.6,4.99,000.00,023.3,022.3,000.0,031.9,024.5,10.3,0000.0,0009.82,0005.22,0004.79
2023-11-29 03:15:00,SystemResetWarning,0832.5,5.00,000.00,023.3,022.2,000.0,031.9,024.6,10.3,0000.0,0009.33,0005.22,0004.78
2023-11-29 03:16:00,SystemResetWarning,0832.5,5.00,000.00,023.3,022.2,000.0,031.8,024.6,10.3,0000.0,0008.94,0005.19,0004.76
2023-11-29 03:17:00,SystemResetWarning,0832.5,5.01,000.00,023.3,022.2,000.0,031.8,024.5,10.4,0000.0,0009.01,0005.16,0004.72
2023-11-29 03:18:00,SystemResetWarning,0832.6,5.00,000.00,023.3,022.2,000.0,031.8,024.5,10.4,0000.0,0008.94,0005.14,0004.70
2023-11-29 03:19:00,SystemResetWarning,0832.5,5.00,000.00,023.3,022.2,000.0,031.8,024.4,10.4,0000.0,0008.84,0005.11,0004.68
2023-11-29 03:20:00,SystemResetWarning,0832.6,5.00,000.00,023.2,022.1,000.0,031.8,024.3,10.5,0000.0,0008.65,0005.10,0004.67
2023-11-29 03:21:00,SystemResetWarning,0832.5,5.01,000.00,023.2,022.1,000.0,031.8,024.4,10.5,0000.0,0008.62,0005.08,0004.66
2023-11-29 03:22:00,SystemResetWarning,0832.5,5.00,000.00,023.2,022.1,000.0,031.7,024.4,10.5,0000.0,0008.99,0005.07,0004.66
2023-11-29 03:23:00,SystemResetWarning,0832.5,5.01,000.00,023.2,022.1,000.0,031.7,024.4,10.7,0000.0,0009.19,0005.05,0004.67
2023-11-29 03:24:00,SystemResetWarning,0832.5,4.99,000.00,023.2,022.1,000.0,031.7,024.4,10.7,0000.0,0009.13,0005.06,0004.69
2023-11-29 03:25:00,SystemResetWarning,0832.5,4.99,000.00,023.2,022.1,000.0,031.7,024.4,10.6,0000.0,0009.20,0005.08,0004.70
2023-11-29 03:26:00,SystemResetWarning,0832.5,5.00,000.00,023.2,022.0,000.0,031.7,024.4,10.6,0000.0,0009.27,0005.09,0004.70
2023-11-29 03:27:00,SystemResetWarning,0832.5,5.00,000.00,023.1,022.0,000.0,031.7,024.3,10.6,0000.0,0009.91,0005.09,0004.70
2023-11-29 03:28:00,SystemResetWarning,0832.5,5.00,000.00,023.1,022.1,000.0,031.7,024.3,10.7,0000.0,0009.89,0005.12,0004.72
2023-11-29 03:29:00,SystemResetWarning,0832.5,5.00,000.00,023.1,022.1,000.0,031.6,024.3,10.9,0000.0,0009.74,0005.12,0004.73
2023-11-29 03:30:00,SystemResetWarning,0832.5,5.00,000.00,023.1,022.1,000.0,031.6,024.4,10.9,0000.0,0009.86,0005.10,0004.70
2023-11-29 03:31:00,SystemResetWarning,0832.4,5.00,000.00,023.1,022.1,000.0,031.6,024.3,10.9,0000.0,0009.84,0005.08,0004.69
2023-11-29 03:32:00,SystemResetWarning,0832.4,5.00,000.00,023.1,022.1,000.0,031.6,024.3,10.9,0000.0,0009.82,0005.06,0004.68
2023-11-29 03:33:00,SystemResetWarning,0832.4,5.00,000.00,023.1,022.1,000.0,031.6,024.3,10.9,0000.0,0009.45,0005.04,0004.66
2023-11-29 03:34:00,SystemResetWarning,0832.4,5.00,000.00,023.1,022.0,000.0,031.6,024.4,10.7,0000.0,0009.03,0005.03,0004.65
2023-11-29 03:35:00,SystemResetWarning,0832.3,5.00,000.00,023.1,022.0,000.0,031.6,024.3,10.6,0000.0,0008.99,0005.01,0004.63
2023-11-29 03:36:00,SystemResetWarning,0832.3,5.01,000.00,023.1,022.0,000.0,031.6,024.3,10.7,0000.0,0008.87,0004.99,0004.62
2023-11-29 03:37:00,SystemResetWarning,0832.3,5.00,000.00,023.1,022.0,000.0,031.5,024.2,10.7,0000.0,0008.74,0004.95,0004.61
2023-11-29 03:38:00,SystemResetWarning,0832.3,5.00,000.00,023.0,022.0,000.0,031.5,024.2,10.9,0000.0,0008.34,0004.95,0004.59
2023-11-29 03:39:00,SystemResetWarning,0832.2,5.00,000.00,023.0,022.0,000.0,031.5,024.2,10.9,0000.0,0008.30,0004.92,0004.58
2023-11-29 03:40:00,SystemResetWarning,0832.2,5.00,000.00,023.0,022.0,000.0,031.5,024.2,10.9,0000.0,0008.29,0004.87,0004.55
2023-11-29 03:41:00,SystemResetWarning,0832.2,5.00,000.00,023.0,022.0,000.0,031.5,024.2,10.8,0000.0,0008.10,0004.86,0004.53
2023-11-29 03:42:00,SystemResetWarning,0832.2,5.00,000.00,023.0,021.9,000.0,031.5,024.3,10.8,0000.0,0008.04,0004.83,0004.50
2023-11-29 03:43:00,SystemResetWarning,0832.2,5.01,000.00,023.0,021.9,000.0,031.5,024.2,10.7,0000.0,0007.97,0004.79,0004.46
2023-11-29 03:44:00,SystemResetWarning,0832.1,5.00,000.00,023.0,021.9,000.0,031.5,024.1,10.6,0000.0,0008.01,0004.76,0004.43
2023-11-29 03:45:00,SystemResetWarning,0832.2,5.00,000.00,023.0,021.9,000.0,031.4,024.1,10.6,0000.0,0008.08,0004.75,0004.41
2023-11-29 03:46:00,SystemResetWarning,0832.2,5.00,000.00,022.9,021.9,000.0,031.4,024.1,10.6,0000.0,0008.10,0004.74,0004.40
2023-11-29 03:47:00,SystemResetWarning,0832.2,4.99,000.00,022.9,021.8,000.0,031.4,024.0,10.6,0000.0,0008.11,0004.73,0004.38
2023-11-29 03:48:00,SystemResetWarning,0832.1,5.00,000.00,022.9,021.8,000.0,031.4,024.1,10.6,0000.0,0008.48,0004.71,0004.36
2023-11-29 03:49:00,SystemResetWarning,0832.2,5.00,000.00,022.9,021.8,000.0,031.4,024.1,10.5,0000.0,0008.67,0004.68,0004.33
2023-11-29 03:50:00,SystemResetWarning,0832.2,5.00,000.00,022.8,021.8,000.0,031.4,024.1,10.6,0000.0,0008.52,0004.61,0004.28
2023-11-29 03:51:00,SystemResetWarning,0832.2,5.00,000.00,022.8,021.8,000.0,031.4,024.0,10.7,0000.0,0008.54,0004.60,0004.26
2023-11-29 03:52:00,SystemResetWarning,0832.2,5.00,000.00,022.8,021.8,000.0,031.3,024.0,10.8,0000.0,0008.59,0004.58,0004.24
2023-11-29 03:53:00,SystemResetWarning,0832.2,5.00,000.00,022.8,021.8,000.0,031.3,024.0,10.6,0000.0,0008.59,0004.57,0004.22
2023-11-29 03:54:00,SystemResetWarning,0832.2,5.00,000.00,022.8,021.7,000.0,031.3,024.1,10.4,0000.0,0008.63,0004.57,0004.22
2023-11-29 03:55:00,SystemResetWarning,0832.2,5.00,000.00,022.8,021.7,000.0,031.3,024.0,10.4,0000.0,0008.50,0004.53,0004.20
2023-11-29 03:56:00,SystemResetWarning,0832.2,5.00,000.00,022.8,021.7,000.0,031.3,024.0,10.4,0000.0,0008.40,0004.51,0004.18
2023-11-29 03:57:00,SystemResetWarning,0832.2,5.00,000.00,022.8,021.7,000.0,031.3,023.9,10.4,0000.0,0008.30,0004.49,0004.15
2023-11-29 03:58:00,SystemResetWarning,0832.2,5.00,000.00,022.8,021.7,000.0,031.3,024.0,10.4,0000.0,0008.30,0004.48,0004.14
2023-11-29 03:59:00,SystemResetWarning,0832.2,5.00,000.00,022.7,021.7,000.0,031.2,024.0,10.4,0000.0,0007.84,0004.45,0004.12
